[[{"header":{"parameterUnit":"m.s-1","parameterCategory":1,"la1":30.2992,"la2":30.254,"lo1":-89.0895,"lo2":-89.0443,"dy":0.0025,"dx":0.0025,"nx":19,"ny":19,"refTime":"2026-04-04T03:00:00:Z","depth":0,"parameterNumber":2,"parameterNumberName":"U-component_of_WINDS"},"data":[0,0,0,1.3087,1.3083,1.2892,1.2891,1.2663,1.2661,0,0,0,0,0,0,0,0,0,0,0,1.3161,1.316,1.3087,1.3083,1.2892,1.2891,1.2663,1.2661,0,0,0,0,0,0,0,0,0,0,0,1.3161,1.316,1.3159,1.3082,1.2892,1.2891,1.2663,1.28,0,0,0,0,0,0,0,0,0,0,1.2982,1.3069,1.3161,1.3159,1.3081,1.2893,1.2891,1.2806,1.2791,1.2759,0,1.2742,0,1.2699,1.2647,1.2647,0,0,0,1.3067,1.3082,1.3016,1.3159,1.308,1.2893,1.2974,1.2797,1.2781,1.2739,1.2738,1.2729,1.2695,1.2646,1.2645,1.2531,1.2531,0,0,1.3077,1.3134,1.3028,1.3006,1.3046,1.298,1.2968,1.2787,1.2786,1.2737,1.2723,1.2691,1.2645,1.2643,1.253,1.2531,0,0,0,1.3118,1.3142,1.3079,1.3016,1.2981,1.2975,1.2961,1.2794,1.2769,1.272,1.2688,1.2643,1.2641,1.253,1.253,1.2599,0,0,0,1.3124,1.3166,1.3085,1.3117,1.2985,1.2887,1.2973,1.2782,1.276,1.269,1.2643,1.2639,1.253,1.253,1.2597,1.262,0,0,0,1.3167,1.317,1.315,1.312,1.3042,1.2889,1.2853,1.2776,1.2741,1.2646,1.2639,1.253,1.253,1.2595,1.2616,1.2608,0,0,0,1.3227,1.3208,1.3152,1.3118,1.3044,1.2936,1.2854,1.2768,1.2695,1.2642,1.253,1.253,1.2594,1.2614,1.2606,1.2611,1.2619,0,0,1.3234,1.3211,1.3187,1.3131,1.305,1.296,1.2884,1.2759,1.2693,1.2586,1.2583,1.2598,1.2616,1.2607,1.2646,1.2653,0,0,0,1.3208,1.3192,1.3157,1.3096,1.3007,1.293,1.2813,1.2767,1.2675,1.2654,1.259,1.26,1.2592,1.2591,1.2597,1.2586,1.2533,1.2533,1.2533,1.3296,1.3222,1.3177,1.3081,1.3021,1.2904,1.2846,1.2762,1.2697,1.2684,1.2651,1.2685,1.2687,1.2691,1.268,1.2648,1.2649,1.2649,1.2649,1.33,1.3264,1.3188,1.3117,1.3036,1.2971,1.2856,1.2814,1.2738,1.2703,1.2691,1.2659,1.2701,1.2687,1.2653,1.2653,1.2652,1.2652,1.2651,1.3348,1.3319,1.3269,1.3175,1.3109,1.3008,1.2943,1.2868,1.2797,1.2787,1.2743,1.2742,1.273,1.2772,1.2772,1.2773,1.2773,1.2773,1.2773,1.3418,1.336,1.3318,1.3226,1.3178,1.3105,1.2989,1.2936,1.2858,1.2808,1.2808,1.2744,1.2721,1.2717,1.2774,1.2774,1.2774,1.2774,1.2773,1.3446,1.343,1.3366,1.3319,1.3204,1.3143,1.3053,1.2953,1.2898,1.2868,1.2807,1.2804,1.2771,1.2765,1.2761,1.2826,1.2826,1.2826,1.2826,1.3487,1.3467,1.3386,1.3316,1.3238,1.3151,1.3074,1.2983,1.2883,1.2844,1.2824,1.2812,1.281,1.2778,1.2772,1.2767,1.2832,1.2832,1.2832,1.35,1.347,1.3422,1.3335,1.3241,1.3159,1.3084,1.3,1.2883,1.283,1.2811,1.281,1.279,1.2788,1.2733,1.2726,1.2714,0,0]},{"header":{"parameterUnit":"m.s-1","parameterCategory":1,"la1":30.2992,"la2":30.254,"lo1":-89.0895,"lo2":-89.0443,"dy":0.0025,"dx":0.0025,"nx":19,"ny":19,"refTime":"2026-04-04T03:00:00:Z","depth":0,"parameterNumber":3,"parameterNumberName":"V-component_of_WINDS"},"data":[0,0,0,3.8082,3.8089,3.8452,3.8454,3.8868,3.8871,0,0,0,0,0,0,0,0,0,0,0,3.7951,3.7953,3.8081,3.809,3.8452,3.8454,3.8867,3.8871,0,0,0,0,0,0,0,0,0,0,0,3.795,3.7953,3.7955,3.8091,3.8452,3.8454,3.8867,3.8609,0,0,0,0,0,0,0,0,0,0,3.8265,3.8123,3.7952,3.7955,3.8093,3.8452,3.8454,3.8597,3.8625,3.8684,0,3.8736,0,3.881,3.8896,3.8898,0,0,0,3.8106,3.8099,3.8219,3.7956,3.8096,3.8451,3.8293,3.8613,3.8645,3.872,3.8743,3.8759,3.8817,3.8899,3.8901,3.9199,3.9199,0,0,3.8086,3.8003,3.8197,3.8238,3.8186,3.8282,3.8304,3.8633,3.8649,3.8744,3.877,3.8824,3.8901,3.8904,3.9198,3.9199,0,0,0,3.8018,3.7988,3.81,3.822,3.8289,3.8292,3.8318,3.8635,3.8679,3.8774,3.8829,3.8903,3.8908,3.9198,3.9198,3.9149,0,0,0,3.8006,3.7948,3.8091,3.8043,3.8282,3.8468,3.8311,3.8656,3.8696,3.8827,3.8904,3.8912,3.9197,3.9198,3.9149,3.9139,0,0,0,3.7935,3.794,3.7985,3.8038,3.8192,3.8465,3.8528,3.8666,3.8728,3.8898,3.8913,3.9197,3.9198,3.915,3.914,3.9192,0,0,0,3.7834,3.7936,3.7983,3.8117,3.8188,3.8433,3.8527,3.8713,3.8853,3.8905,3.9197,3.9198,3.915,3.914,3.9191,3.922,3.9225,0,0,3.7916,3.7943,3.8028,3.8081,3.8297,3.8385,3.8592,3.8797,3.8887,3.9088,3.9096,3.9149,3.914,3.9192,3.9283,3.9286,0,0,0,3.8025,3.8085,3.816,3.8292,3.8453,3.8588,3.8771,3.8846,3.9021,3.8976,3.9186,3.9182,3.9216,3.9233,3.9236,3.9269,3.9203,3.9203,3.9203,3.802,3.8132,3.8278,3.8432,3.8557,3.8744,3.8853,3.8985,3.9061,3.9107,3.9168,3.921,3.9227,3.923,3.9263,3.9193,3.9193,3.9193,3.9193,3.8147,3.8248,3.8345,3.8523,3.8637,3.8785,3.8965,3.9012,3.9163,3.9175,3.921,3.9212,3.923,3.9264,3.919,3.9191,3.9191,3.9191,3.9191,3.8155,3.8223,3.8314,3.8513,3.8651,3.8801,3.8941,3.9041,3.9134,3.9169,3.9241,3.9242,3.9253,3.9196,3.9197,3.9197,3.9197,3.9197,3.9197,3.8127,3.8232,3.834,3.8517,3.8612,3.8748,3.8933,3.9027,3.9156,3.9216,3.9217,3.9284,3.9213,3.9191,3.92,3.9199,3.9199,3.9199,3.9199,3.8213,3.8209,3.8376,3.8471,3.8684,3.8811,3.8936,3.9118,3.921,3.9274,3.9334,3.9265,3.9298,3.9297,3.928,3.9312,3.9312,3.9312,3.9312,3.8218,3.8245,3.8437,3.8581,3.8734,3.8862,3.904,3.9181,3.9326,3.9388,3.9397,3.9383,3.9377,3.9415,3.9411,3.9396,3.9456,3.9457,3.9457,3.8276,3.8322,3.8458,3.8603,3.8775,3.8919,3.9088,3.9244,3.9407,3.9465,3.9438,3.9431,3.941,3.9398,3.9455,3.9447,3.9422,0,0]}]]